FW2433 Weather Reports


time (UTC)temp
C
wind
direction
speed
KPH
gust
KPH
rain 1hr
cm
rain 24hr
cm
rain mn
cm
humidity
%
barometer
mb
20260503053001 12 281 0.0 0.0 0.00 0.00 0.00 76 1018.0
20260503051600 11 282 0.0 0.0 0.00 0.00 0.00 77 1018.1
20260503044557 11 279 0.0 0.0 0.00 0.00 0.00 79 1018.0
20260503043058 11 279 0.0 0.0 0.00 0.00 0.00 78 1018.0
20260503041554 11 279 0.0 0.0 0.00 0.00 0.00 77 1017.9
20260503040055 11 279 0.0 0.0 0.00 0.00 0.00 76 1017.9
20260503034554 11 279 0.0 0.0 0.00 0.00 0.00 76 1017.9
20260503033058 12 279 0.0 0.0 0.00 0.00 0.00 75 1017.9
20260503031550 12 279 0.0 0.0 0.00 0.00 0.00 75 1017.9
20260503030048 12 279 0.0 0.0 0.00 0.00 0.00 74 1017.9
20260503024550 12 238 0.0 0.0 0.00 0.00 0.00 74 1017.9
20260503023049 12 141 0.0 0.0 0.00 0.00 0.00 74 1018.0
20260503021544 12 141 0.0 0.0 0.00 0.00 0.00 73 1018.1
20260503020045 12 141 0.0 0.0 0.00 0.00 0.00 72 1018.2
20260503014539 12 140 0.0 0.0 0.00 0.00 0.00 72 1018.2
20260503013039 13 140 0.0 0.0 0.00 0.00 0.00 71 1018.2
20260503011545 13 140 0.0 0.0 0.00 0.00 0.00 71 1018.3
20260503010036 13 140 0.0 0.0 0.00 0.00 0.00 71 1018.4
20260503004537 13 140 0.0 0.0 0.00 0.00 0.00 69 1018.4
20260503003038 13 140 0.0 0.0 0.00 0.00 0.00 69 1018.4
20260503001530 13 140 0.0 0.0 0.00 0.00 0.00 69 1018.5
20260503000027 14 140 0.0 0.0 0.00 0.00 0.00 67 1018.6
20260502234531 14 140 0.0 0.0 0.00 0.00 0.00 66 1018.7
20260502233022 15 140 0.0 0.0 0.00 0.00 0.00 65 1018.8
20260502231526 15 140 0.0 0.0 0.00 0.00 0.00 64 1019.0
20260502230017 15 140 0.0 0.0 0.00 0.00 0.00 63 1019.1
20260502224515 15 140 0.0 0.0 0.00 0.00 0.00 62 1019.1
20260502223013 16 140 0.0 0.0 0.00 0.00 0.00 61 1019.2
20260502221512 16 138 0.0 0.0 0.00 0.00 0.00 61 1019.2
20260502220013 16 138 0.0 0.0 0.00 0.00 0.00 60 1019.4
20260502214508 16 136 0.0 0.0 0.00 0.00 0.00 61 1019.4
20260502213019 16 136 0.0 0.0 0.00 0.00 0.00 60 1019.4
20260502211511 17 136 0.0 0.0 0.00 0.00 0.00 60 1019.4
20260502210011 16 136 0.0 0.0 0.00 0.00 0.00 61 1019.5
20260502204506 17 136 0.0 0.0 0.00 0.00 0.00 61 1019.5
20260502203006 17 136 0.0 0.0 0.00 0.00 0.00 61 1019.6
20260502201517 17 136 0.0 0.0 0.00 0.00 0.00 60 1019.6
20260502200118 17 136 0.0 0.0 0.00 0.00 0.00 59 1019.6
20260502194503 18 136 0.0 0.0 0.00 0.00 0.00 57 1019.5
20260502193002 18 136 0.0 0.0 0.00 0.00 0.00 56 1019.5
20260502191502 19 136 0.0 0.0 0.00 0.00 0.00 54 1019.5
20260502190001 20 136 0.0 0.0 0.00 0.00 0.00 52 1019.5
20260502184605 20 136 0.0 0.0 0.00 0.00 0.00 50 1019.3
20260502183102 21 136 0.0 0.0 0.00 0.00 0.00 49 1019.3
20260502181601 22 136 0.0 0.0 0.00 0.00 0.00 46 1019.3
20260502180105 22 137 0.0 0.0 0.00 0.00 0.00 44 1019.3
20260502163057 25 141 0.0 0.0 0.00 0.00 0.00 37 1019.5
20260502161551 25 238 0.0 1.6 0.00 0.00 0.00 38 1019.7
20260502151606 24 121 0.0 4.8 0.00 0.00 0.00 36 1020.1
20260502123022 24 123 0.0 3.2 0.00 0.00 0.00 36 1022.2
20260502121519 24 139 0.0 1.6 0.00 0.00 0.00 36 1022.4
20260502114513 23 123 0.0 1.6 0.00 0.00 0.00 36 1022.8
20260502113010 23 108 0.0 0.0 0.00 0.00 0.00 37 1022.9
20260502111509 23 117 0.0 1.6 0.00 0.00 0.00 36 1023.1
20260502110005 23 296 0.0 0.0 0.00 0.00 0.00 36 1023.4
20260502104502 23 257 0.0 1.6 0.00 0.00 0.00 37 1023.7
20260502103059 22 132 0.0 1.6 0.00 0.00 0.00 38 1023.8
20260502101609 22 283 0.0 1.6 0.00 0.00 0.00 40 1023.9
20260502071514 15 278 0.0 0.0 0.00 0.00 0.00 63 1025.0
20260502070010 14 261 0.0 1.6 0.00 0.00 0.00 65 1025.1
20260502064507 13 281 0.0 0.0 0.00 0.00 0.00 65 1025.1
20260502063012 13 279 0.0 1.6 0.00 0.00 0.00 65 1025.1
20260502061510 12 281 0.0 0.0 0.00 0.00 0.00 65 1025.1
20260502060015 12 281 0.0 0.0 0.00 0.00 0.00 65 1025.1
20260502054503 11 279 0.0 0.0 0.00 0.00 0.00 66 1025.0